[[{"header":{"parameterUnit":"m.s-1","parameterCategory":1,"la1":30.2991,"la2":30.254,"lo1":-89.0895,"lo2":-89.0444,"dy":0.0017,"dx":0.0017,"nx":28,"ny":28,"refTime":"2023-10-10T21:00:00:Z","depth":0,"parameterNumber":2,"parameterNumberName":"U-component_of_WINDS"},"data":[0,0,0,0,0,0,0,0,0,0,0,0,0,0,0,0,0,0,0,0,0,0,0,0,0,0,0,0,0,0,0,0,0,0,0,0,0,0,0,0,0,0,0,0,0,0,0,0,0,0,0,0,0,0,0,0,0,0,-3.0085,-3.0086,0,-3.016,-3.0161,-3.0161,-3.0037,-3.0033,-3.0029,-3.0025,-3.0105,-3.0111,-3.0117,0,0,0,0,0,0,0,0,0,0,0,0,0,-2.9838,-2.9844,-3.0085,-3.0086,-3.0087,-3.016,-3.0161,-3.0162,-3.0038,-3.0033,-3.0028,-3.0023,-3.0103,-3.0111,-3.0118,0,0,0,0,0,0,0,0,0,0,0,0,0,-2.9933,-2.9845,-3.0085,-3.0034,-3.003,-3.0159,-3.0161,-3.0162,-3.0039,-3.0033,-3.0026,-3.002,-3.0101,-3.011,-3.0119,-3.0303,0,0,-3.0147,-3.0151,0,0,0,0,0,0,0,0,-2.9928,-2.9942,-3.004,-3.0038,-3.0033,-3.0083,-3.0103,-3.0209,-3.0041,-3.0036,-3.0025,-3.0017,-3.0103,-3.0112,-3.014,-3.0307,-3.031,-3.0148,-3.0153,-3.0157,-3.016,0,0,0,0,0,0,0,-2.9921,-2.9938,-3.0115,-3.0042,-3.0038,-3.0008,-3.0015,-3.0123,-3.0105,-3.0036,-3.0027,-3.0037,-3.01,-3.0131,-3.0141,-3.0311,-3.0147,-3.0156,-3.0161,-3.0165,-3.0634,-3.0641,0,0,0,0,0,0,-2.992,-2.9933,-3.0112,-3.0117,-2.9964,-3.0018,-3.0025,-3.0073,-3.0103,-3.0101,-3.0043,-3.0031,-3.0119,-3.013,-3.0143,-3.0362,-3.0157,-3.0166,-3.0171,-3.0627,-3.0636,-3.0643,0,0,0,0,0,0,-2.9916,-2.9938,-3.0109,-3.0023,-3.0042,-3.0029,-3.0084,-3.0078,-3.0109,-3.0108,-3.0104,-3.0078,-3.0114,-3.013,-3.0264,-3.0363,-3.017,-3.0178,-3.0619,-3.063,-3.064,-3.0802,0,0,0,0,0,0,-2.9909,-2.9937,-3.0006,-3.0025,-3.0047,-3.0229,-3.009,-3.0084,-3.0125,-3.0111,-3.014,-3.0139,-3.0111,-3.0251,-3.0273,-3.0373,-3.0185,-3.061,-3.0624,-3.0636,-3.0787,-3.0816,-3.0841,0,0,0,0,0,-2.9901,-3.0049,-3.001,-3.0032,-3.0133,-3.0234,-3.0247,-3.0211,-3.0133,-3.0204,-3.0203,-3.0138,-3.0348,-3.0266,-3.029,-3.0393,-3.0604,-3.062,-3.0635,-3.0775,-3.0811,-3.084,0,0,0,0,0,0,-3.0043,-3.005,-3.0007,-3.0166,-3.02,-3.0213,-3.0301,-3.0249,-3.0307,-3.0291,-3.0244,-3.0252,-3.0396,-3.0407,-3.0316,-3.0574,-3.0463,-3.0485,-3.0562,-3.0595,-3.0621,-3.0617,-3.0193,0,0,0,0,0,-3.0092,-3.0172,-3.0175,-3.0315,-3.0334,-3.0315,-3.0357,-3.0326,-3.036,-3.0375,-3.0383,-3.042,-3.0494,-3.0545,-3.0613,-3.0787,-3.0793,-3.087,-3.0897,-3.0919,-3.0939,-3.1034,-3.1069,-3.0695,-3.0695,-3.0694,0,0,-3.0196,-3.021,-3.0264,-3.0344,-3.0367,-3.0453,-3.0328,-3.0423,-3.0487,-3.0389,-3.0517,-3.0525,-3.0562,-3.0718,-3.0787,-3.0732,-3.1043,-3.0939,-3.0956,-3.0965,-3.1054,-3.1089,-3.1121,-3.0706,-3.0704,-3.0702,0,0,-3.0429,-3.0447,-3.0566,-3.0591,-3.0627,-3.0613,-3.0642,-3.0663,-3.0664,-3.079,-3.0719,-3.0794,-3.0923,-3.0954,-3.0986,-3.1231,-3.1174,-3.1254,-3.1396,-3.1489,-3.1518,-3.1544,-3.1635,-3.1667,-3.1273,-3.1274,-3.1274,0,-3.0555,-3.068,-3.0634,-3.0736,-3.0774,-3.0687,-3.0809,-3.0835,-3.0893,-3.0922,-3.0858,-3.1018,-3.1038,-3.12,-3.126,-3.1288,-3.1321,-3.1252,-3.1517,-3.1543,-3.1567,-3.1652,-3.1686,-3.1283,-3.1282,-3.1281,-3.128,0,-3.0833,-3.0921,-3.1013,-3.107,-3.1118,-3.1229,-3.1201,-3.1256,-3.1219,-3.1213,-3.1344,-3.1363,-3.1435,-3.147,-3.1436,-3.1629,-3.1594,-3.1525,-3.1414,-3.1613,-3.1693,-3.1725,-3.1297,-3.1294,-3.1291,-3.1288,0,0,-3.1161,-3.119,-3.1225,-3.125,-3.1283,-3.1351,-3.1458,-3.1527,-3.1575,-3.1617,-3.1708,-3.1818,-3.1754,-3.1791,-3.176,-3.1841,-3.2037,-3.1762,-3.1762,-3.1816,-3.2253,-3.2308,-3.2346,-3.1998,-3.2004,-3.2009,-3.2251,0,-3.1396,-3.158,-3.1542,-3.1724,-3.1806,-3.1724,-3.1817,-3.1848,-3.1844,-3.1914,-3.1909,-3.199,-3.1898,-3.1921,-3.1997,-3.1997,-3.2125,-3.1978,-3.2085,-3.2089,-3.2082,-3.2387,-3.2445,-3.2673,-3.2282,-3.2287,-3.2291,0,-3.1695,-3.1747,-3.1937,-3.1957,-3.199,-3.2075,-3.2136,-3.2202,-3.2236,-3.2228,-3.2269,-3.2222,-3.233,-3.2215,-3.2364,-3.2266,-3.2306,-3.2313,-3.2321,-3.2332,-3.2205,-3.2411,-3.2744,-3.278,-3.2339,-3.2335,-3.2331,0,-3.1919,-3.2037,-3.2166,-3.2189,-3.2216,-3.2278,-3.2292,-3.2319,-3.2363,-3.2416,-3.2444,-3.2509,-3.2546,-3.2598,-3.257,-3.2488,-3.2726,-3.2608,-3.2725,-3.2726,-3.2781,-3.2779,-3.313,-3.2802,-3.2801,-3.2801,-3.28,0,-3.2188,-3.2308,-3.2267,-3.2347,-3.248,-3.2434,-3.2567,-3.2571,-3.2596,-3.2677,-3.2609,-3.2686,-3.2643,-3.2717,-3.2696,-3.2825,-3.2841,-3.2839,-3.2833,-3.2847,-3.2848,-3.2876,-3.2861,-3.281,-3.2808,-3.2806,-3.2805,0,-3.2463,-3.244,-3.2576,-3.2589,-3.2595,-3.2692,-3.2704,-3.2779,-3.2769,-3.2872,-3.2893,-3.2878,-3.2962,-3.2938,-3.303,-3.3015,-3.3179,-3.3151,-3.3168,-3.3163,-3.3282,-3.3272,-3.3666,-3.3717,-3.3353,-3.3356,-3.3359,0,-3.2637,-3.2728,-3.275,-3.2798,-3.2817,-3.2896,-3.294,-3.2899,-3.2948,-3.2993,-3.3064,-3.3141,-3.3202,-3.334,-3.3338,-3.3408,-3.3383,-3.3516,-3.3393,-3.3406,-3.3389,-3.3386,-3.3396,-3.3542,-3.3546,-3.3549,-3.3552,0,-3.2951,-3.2935,-3.3001,-3.3064,-3.3118,-3.3166,-3.3207,-3.3251,-3.3212,-3.3271,-3.3356,-3.3402,-3.3495,-3.3574,-3.3637,-3.3652,-3.3599,-3.359,-3.3621,-3.364,-3.3647,-3.3648,-3.3239,-3.3582,-3.3579,-3.3577,-3.3575,-3.3574,-3.3183,-3.326,-3.3288,-3.3365,-3.3391,-3.3431,-3.3503,-3.3501,-3.357,-3.3642,-3.3613,-3.3711,-3.3743,-3.3822,-3.3846,-3.3923,-3.3872,-3.3917,-3.3929,-3.3942,-3.3958,-3.3632,-3.3934,-3.3933,-3.3932,-3.3931,-3.393,0,-3.3496,-3.351,-3.358,-3.364,-3.37,-3.364,-3.3682,-3.3738,-3.3824,-3.3858,-3.3918,-3.4016,-3.4092,-3.4095,-3.4167,-3.4228,-3.4205,-3.4248,-3.4246,-3.4251,-3.3997,-3.3965,-3.4266,-3.4266,-3.4266,-3.4266,-3.4266,-3.4266,-3.3666,-3.3795,-3.3782,-3.3923,-3.3935,-3.403,-3.406,-3.4098,-3.4124,-3.4236,-3.4299,-3.4299,-3.4322,-3.4394,-3.4462,-3.4461,-3.4492,-3.4547,-3.4537,-3.4301,-3.4268,-3.4236,-3.4206,-3.4553,-3.4553,-3.4784,-3.4786,-3.4788]},{"header":{"parameterUnit":"m.s-1","parameterCategory":1,"la1":30.2991,"la2":30.254,"lo1":-89.0895,"lo2":-89.0444,"dy":0.0017,"dx":0.0017,"nx":28,"ny":28,"refTime":"2023-10-10T21:00:00:Z","depth":0,"parameterNumber":3,"parameterNumberName":"V-component_of_WINDS"},"data":[0,0,0,0,0,0,0,0,0,0,0,0,0,0,0,0,0,0,0,0,0,0,0,0,0,0,0,0,0,0,0,0,0,0,0,0,0,0,0,0,0,0,0,0,0,0,0,0,0,0,0,0,0,0,0,0,0,0,-3.0864,-3.0863,0,-3.0792,-3.0792,-3.0791,-3.0734,-3.0734,-3.0733,-3.0733,-3.0655,-3.0654,-3.0652,0,0,0,0,0,0,0,0,0,0,0,0,0,-3.0946,-3.0945,-3.0864,-3.0863,-3.0862,-3.0793,-3.0792,-3.0791,-3.0734,-3.0734,-3.0733,-3.0732,-3.0656,-3.0654,-3.0652,0,0,0,0,0,0,0,0,0,0,0,0,0,-3.0896,-3.0944,-3.0864,-3.0826,-3.0821,-3.0793,-3.0791,-3.079,-3.0734,-3.0734,-3.0733,-3.0732,-3.0656,-3.0654,-3.0652,-3.0654,0,0,-3.0645,-3.0644,0,0,0,0,0,0,0,0,-3.0899,-3.0893,-3.0832,-3.0828,-3.0823,-3.0771,-3.0792,-3.0744,-3.0735,-3.0767,-3.0733,-3.0732,-3.0694,-3.0689,-3.0677,-3.065,-3.0647,-3.0644,-3.0643,-3.0642,-3.0641,0,0,0,0,0,0,0,-3.0902,-3.0896,-3.0835,-3.0831,-3.0826,-3.081,-3.0802,-3.0783,-3.0736,-3.0764,-3.076,-3.0753,-3.0692,-3.0679,-3.0675,-3.0646,-3.0644,-3.0642,-3.0641,-3.064,-3.0615,-3.0616,0,0,0,0,0,0,-3.0912,-3.0899,-3.0837,-3.0833,-3.086,-3.0809,-3.08,-3.0789,-3.0736,-3.0727,-3.0754,-3.075,-3.0684,-3.0678,-3.0672,-3.067,-3.0642,-3.064,-3.0639,-3.0614,-3.0615,-3.0616,0,0,0,0,0,0,-3.0914,-3.0907,-3.084,-3.0865,-3.0855,-3.0809,-3.0796,-3.0788,-3.0776,-3.0728,-3.0719,-3.075,-3.0683,-3.0675,-3.0659,-3.0666,-3.0639,-3.0637,-3.0613,-3.0614,-3.0615,-3.0666,0,0,0,0,0,0,-3.0917,-3.0908,-3.091,-3.0865,-3.0854,-3.083,-3.0797,-3.0787,-3.0772,-3.0768,-3.0722,-3.0714,-3.0682,-3.0662,-3.0656,-3.0662,-3.0635,-3.0612,-3.0614,-3.0615,-3.0664,-3.0669,-3.0674,0,0,0,0,0,-3.092,-3.0927,-3.0911,-3.0903,-3.0855,-3.0831,-3.0824,-3.0788,-3.0773,-3.0774,-3.0743,-3.0715,-3.0667,-3.0661,-3.0654,-3.066,-3.0612,-3.0613,-3.0615,-3.0661,-3.0668,-3.0673,0,0,0,0,0,0,-3.0972,-3.092,-3.0902,-3.0894,-3.0868,-3.0821,-3.0821,-3.0796,-3.0772,-3.0769,-3.0724,-3.0714,-3.0702,-3.0679,-3.0674,-3.0658,-3.0635,-3.0636,-3.0673,-3.0679,-3.0684,-3.0689,-3.0633,0,0,0,0,0,-3.0983,-3.0969,-3.0924,-3.0921,-3.0909,-3.0868,-3.0855,-3.083,-3.08,-3.0788,-3.0756,-3.0726,-3.0704,-3.069,-3.0667,-3.066,-3.0648,-3.066,-3.0665,-3.0669,-3.067,-3.0662,-3.0667,-3.0621,-3.0621,-3.0621,0,0,-3.1005,-3.0975,-3.0969,-3.0931,-3.0908,-3.0892,-3.0858,-3.0844,-3.0831,-3.0785,-3.0768,-3.0743,-3.0707,-3.0695,-3.0688,-3.0675,-3.068,-3.0671,-3.0675,-3.0673,-3.0665,-3.0669,-3.0673,-3.0622,-3.0622,-3.0622,0,0,-3.1037,-3.1014,-3.1009,-3.0986,-3.0951,-3.0923,-3.0922,-3.0879,-3.0861,-3.0843,-3.0808,-3.0791,-3.0755,-3.073,-3.0712,-3.0734,-3.0707,-3.0728,-3.0753,-3.0746,-3.075,-3.0753,-3.0759,-3.0762,-3.0728,-3.0729,-3.0729,0,-3.1068,-3.1046,-3.1009,-3.0996,-3.098,-3.0939,-3.0932,-3.0911,-3.087,-3.0859,-3.0846,-3.0798,-3.0771,-3.0751,-3.0757,-3.0744,-3.074,-3.0733,-3.0753,-3.0755,-3.0757,-3.0763,-3.0766,-3.0731,-3.0731,-3.0731,-3.073,0,-3.1085,-3.107,-3.107,-3.1032,-3.1016,-3.1006,-3.0966,-3.0954,-3.093,-3.0903,-3.0884,-3.085,-3.0818,-3.0812,-3.0788,-3.0789,-3.0782,-3.0762,-3.0738,-3.0765,-3.0769,-3.0771,-3.0735,-3.0734,-3.0733,-3.0733,0,0,-3.1148,-3.109,-3.1091,-3.1073,-3.103,-3.1017,-3.1005,-3.0975,-3.0965,-3.0937,-3.0925,-3.0894,-3.0875,-3.0855,-3.0827,-3.0822,-3.0839,-3.0802,-3.08,-3.0809,-3.0836,-3.0851,-3.0855,-3.0822,-3.0822,-3.0822,-3.0839,0,-3.1173,-3.1151,-3.1117,-3.1105,-3.1089,-3.1049,-3.1038,-3.1009,-3.0984,-3.0965,-3.0935,-3.0914,-3.0891,-3.0878,-3.0871,-3.0839,-3.0844,-3.0837,-3.0807,-3.0807,-3.0817,-3.0857,-3.0873,-3.0891,-3.084,-3.0841,-3.0841,0,-3.1199,-3.1175,-3.1162,-3.112,-3.1112,-3.1103,-3.1072,-3.1056,-3.1022,-3.1003,-3.0981,-3.0952,-3.0934,-3.0914,-3.0888,-3.0885,-3.087,-3.0852,-3.0852,-3.0847,-3.0825,-3.0852,-3.0896,-3.0898,-3.0843,-3.0843,-3.0843,0,-3.1245,-3.1209,-3.1196,-3.1182,-3.1133,-3.1127,-3.1106,-3.1072,-3.1056,-3.1029,-3.1018,-3.0989,-3.0972,-3.095,-3.0912,-3.0901,-3.089,-3.0866,-3.0872,-3.0873,-3.0871,-3.0871,-3.0912,-3.0864,-3.0864,-3.0864,-3.0864,0,-3.1275,-3.1268,-3.1216,-3.1208,-3.1198,-3.1159,-3.115,-3.1125,-3.1094,-3.1079,-3.1042,-3.1029,-3.098,-3.096,-3.093,-3.0913,-3.0906,-3.0889,-3.0881,-3.0892,-3.0894,-3.0881,-3.0878,-3.0864,-3.0864,-3.0864,-3.0864,0,-3.1325,-3.129,-3.1273,-3.1228,-3.1216,-3.1211,-3.1172,-3.1161,-3.1133,-3.1114,-3.1108,-3.1063,-3.1037,-3.0998,-3.096,-3.0939,-3.0926,-3.0914,-3.0938,-3.0933,-3.0941,-3.094,-3.0973,-3.0975,-3.0927,-3.0928,-3.0928,0,-3.1346,-3.134,-3.1295,-3.1283,-3.1264,-3.1245,-3.1228,-3.1188,-3.1172,-3.1133,-3.1127,-3.1099,-3.1074,-3.1035,-3.0997,-3.0968,-3.0953,-3.0967,-3.0948,-3.0959,-3.0952,-3.0952,-3.0951,-3.0971,-3.0972,-3.0972,-3.0973,0,-3.1388,-3.137,-3.1349,-3.1322,-3.1304,-3.128,-3.1254,-3.1246,-3.1199,-3.1183,-3.1157,-3.1138,-3.11,-3.1072,-3.1037,-3.1013,-3.0984,-3.0979,-3.0979,-3.0989,-3.1003,-3.0994,-3.0949,-3.0978,-3.0978,-3.0977,-3.0977,-3.0977,-3.1423,-3.1415,-3.1382,-3.1359,-3.1336,-3.1312,-3.13,-3.127,-3.1249,-3.1215,-3.1192,-3.1167,-3.1132,-3.1082,-3.106,-3.1038,-3.1026,-3.1026,-3.1025,-3.1025,-3.1029,-3.1008,-3.1032,-3.1031,-3.1031,-3.1031,-3.1031,0,-3.1461,-3.1438,-3.1417,-3.1383,-3.1364,-3.1341,-3.1311,-3.1296,-3.1276,-3.1246,-3.1222,-3.1192,-3.1164,-3.1124,-3.1093,-3.1083,-3.1069,-3.1076,-3.1075,-3.107,-3.1042,-3.1045,-3.1088,-3.1088,-3.1088,-3.1088,-3.1088,-3.1088,-3.1479,-3.1464,-3.1443,-3.1415,-3.1391,-3.1368,-3.1352,-3.1329,-3.1305,-3.1273,-3.125,-3.1226,-3.1191,-3.1157,-3.1129,-3.1118,-3.1107,-3.1118,-3.1103,-3.1077,-3.1072,-3.1067,-3.107,-3.1117,-3.1117,-3.1132,-3.1132,-3.1132]}]]